This is the latest recevied weather packets stored in our database for station/object SQ6XL-13. If no packets are shown the sender has not sent any weather packets the latest 10 day(s).
| Time | Temp. | Humidity | Pressure | Rain* | Wind** | Luminosity | Snow |
|---|---|---|---|---|---|---|---|
| 1787579070 | 19.44° C | 60% | 1022.7 hPa | 0 mm | - | - | - |
| 1787578495 | 19.44° C | 59% | 1022.7 hPa | 0 mm | - | - | - |
| 1787577977 | 19.44° C | 59% | 1022.7 hPa | 0 mm | - | - | - |
| 1787577437 | 20° C | 59% | 1022.8 hPa | 0 mm | - | - | - |
| 1787576853 | 20° C | 62% | 1022.9 hPa | 0 mm | - | - | - |
| 1787576370 | 18.89° C | 60% | 1022.9 hPa | 0 mm | - | - | - |
| 1787575785 | 19.44° C | 61% | 1022.9 hPa | 0 mm | - | - | - |
| 1787575260 | 19.44° C | 59% | 1022.8 hPa | 0 mm | - | - | - |
| 1787574715 | 20° C | 59% | 1022.9 hPa | 0 mm | - | - | - |
| 1787574140 | 19.44° C | 60% | 1022.8 hPa | 0 mm | - | - | - |
| 1787573600 | 18.89° C | 62% | 1022.9 hPa | 0 mm | - | - | - |
| 1787573065 | 19.44° C | 60% | 1022.8 hPa | 0 mm | - | - | - |
| 1787572470 | 19.44° C | 60% | 1022.9 hPa | 0 mm | - | - | - |
| 1787571900 | 19.44° C | 61% | 1022.9 hPa | 0 mm | - | - | - |
| 1787571310 | 19.44° C | 60% | 1022.9 hPa | 0 mm | - | - | - |
| 1787570755 | 18.89° C | 61% | 1023 hPa | 0 mm | - | - | - |
| 1787570235 | 18.33° C | 63% | 1023 hPa | 0 mm | - | - | - |
| 1787569720 | 18.89° C | 61% | 1023 hPa | 0 mm | - | - | - |
| 1787569220 | 18.89° C | 61% | 1023.1 hPa | 0 mm | - | - | - |
| 1787568705 | 18.89° C | 60% | 1023.1 hPa | 0 mm | - | - | - |
| 1787568135 | 18.33° C | 62% | 1023.2 hPa | 0 mm | - | - | - |
| 1787567635 | 18.33° C | 61% | 1023.2 hPa | 0 mm | - | - | - |
| 1787567110 | 18.89° C | 62% | 1023.1 hPa | 0 mm | - | - | - |
| 1787566585 | 18.33° C | 62% | 1023.1 hPa | 0 mm | - | - | - |
| 1787566085 | 18.89° C | 62% | 1023.1 hPa | 0 mm | - | - | - |
* Rain latest hour (hover to see other rain measurements)
** Current wind speed in m/s (hover to see current wind gust speed)